User: anonymous   Login
Location: Hurecourt
(47.9030°N, 6.0653°E)
Time: 13:09:27
(UTC+00:00)
Language:

Iridium 4 Rocket - Orbit

View from above orbital plane
View from above orbital plane
View from above satellite
View from above satellite

Ground track
Ground track

The orbit data is extracted from the following two-line orbital elements,

1 24797U 97020F   20274.93853403  .00000135  00000-0  24356-4 0  9990
2 24797  86.8899 273.1688 0222699 269.9453 147.4241 14.44190225231373
Epoch (UTC): 30 September 2020 22:31:29
Eccentricity: 0.0222699
inclination: 86.8899°
perigee height: 586 km
apogee height: 903 km
right ascension of ascending node: 273.1688°
argument of perigee: 269.9453°
revolutions per day: 14.44190225
mean anomaly at epoch: 147.4241°
orbit number at epoch: 23137

The dashed part of the orbit path shows where the satellite is in the earth's shadow,  

DLR